"Pseudo-MPEC" for P10Lo1y

Created 2019 Jan 12 21:18:44 UT using Find_Orb

Click here for an explanation of pseudo-MPECs

 
 Astrometry: 
     P10Lo1y  C2019 01 04QvYCbXhSEAstrometry?U7;55(L5$-]b3:f.uL7kW3JO)i\(b7?#F51
     P10Lo1y  C2019 01 04!B1c/%*q!0.FguqB%T1a6MS0PYj-r#)*@8c$cdhK10\R%6=Ajt6tF51
     P10Lo1y  C2019 01 042EA-7*eIT%Zd%p_redacted;,32##Q-2=NS)sN602d[0CoNH1DaqF51
     P10Lo1y  C2019 01 04e)s[FGhO@@*)vH,k4ZmEXUqivUWrv!5X!\*VqJ`Fb,SRfFRxUIgRF51
     P10Lo1y  C2019 01 10/-Zk-dG$iaXiIwvV)b5;X^(d'h6VGEc[6py7OhclickR-XU^.1BJF51
     P10Lo1y  C2019 01 10d2ORI_SHH493PGV]Uh8mv$5Flmf8c4O=.xaGJO`Bjjr'y:@ljD\7F51
     P10Lo1y  C2019 01 10^A.lt0-u4\here5VxYKaSe[FVY\GI1$QWIixW[LABG/$\?@M#sm^F51
     P10Lo1y  C2019 01 10@(qwQ:P.O)qJ8u`WQVQYYKLqxOh.S.N[YfsVNH2W?6InQ-2Yg7_8F51
     P10Lo1y KC2019 01 12LV#RvvbJyN'r?*gp0g#vj39]#'FaL2dX.;tX:I92hCS^-fort;*t291
     P10Lo1y KC2019 01 12auJHG63ZDNTVBWI.yFb7T\S819/x\*mC%qE.2`,:oc\LfkL3-cAi291
     P10Lo1y KC2019 01 12kZh_qexplanation4@%2;OOQov(\)E#Mj'Kg4qG4_a,M'e(aQC7Z291

Station data:
(291) LPL/Spacewatch II  (N31.961669 W111.599905)  US/Arizona.  Observers J.
   V. Scotti, R. S. McMillan. 1.8-m f/2.7 reflector + CCD.
(F51) Pan-STARRS 1, Haleakala  (N20.707235 W156.255910)  US/Hawaii.
   Observers N. Primak, A. Schultz, S. Watters, J. Thiel, T. Goggia. Measurer
   PS1 Science Consortium. 1.8-m Ritchey-Chrétien + CCD.

Orbital elements:  P10Lo1y
   Perihelion 2019 Jan 28.333458 +/- 0.482 TT =  8:00:10 (JD 2458511.833458)
Epoch 2019 Jan 12.0 TT = JDT 2458495.5   Earth MOID: 0.5692   Ma: 0.0393
M 356.18128358 +/- 0.27             (J2000 ecliptic)          AutoNEOCP
n   0.23379718 +/- 0.0115           Peri.  339.87883 +/- 0.36
a   2.60961554 +/- 0.0854           Node   178.27164 +/- 0.26
e   0.4045873 +/- 0.0169            Incl.   14.02577 +/- 0.037
P   4.22                   H 19.5   G  0.15   U  9.7  
q 1.55379804 +/- 0.00739    Q 3.66543304 +/- 0.182
From 11 observations 2019 Jan. 4-12; mean residual 0".09
Residuals in arcseconds: 
190104 F51  .04-  .01-    190110 F51  .16+  .12+    190112 291  .12-  .11-    
190104 F51  .12-  .02-    190110 F51  .02-  .01-    190112 291  .15+  .17+    
190104 F51  .03+  .03+    190110 F51  .05-  .05-    190112 291  .03-  .05-    
190104 F51  .13+  .01+    190110 F51  .09-  .05-    

Ephemerides (geocentric):
Date (UTC) HH   RA              Dec         delta   r     elong  mag " sig PA
---- -- -- --  -------------   -----------  ------ ------ -----  --- ---- ---
2019 01 12 21  12 10 09.546   -12 52 41.36  0.9912 1.5597 104.3 22.0 .331  56
2019 01 12 22  12 10 14.599   -12 52 54.34  0.9909 1.5597 104.4 22.0 .341  56
2019 01 12 23  12 10 19.650   -12 53 07.28  0.9906 1.5596 104.4 22.0 .351  55
2019 01 13 00  12 10 24.699   -12 53 20.19  0.9902 1.5596 104.4 22.0 .361  54
2019 01 13 01  12 10 29.748   -12 53 33.06  .98992 1.5596 104.4 22.0 .372  53
2019 01 13 02  12 10 34.794   -12 53 45.90  .98959 1.5595 104.4 22.0 .382  53
2019 01 13 03  12 10 39.840   -12 53 58.71  .98925 1.5595 104.5 22.0 .393  52
2019 01 13 04  12 10 44.884   -12 54 11.48  .98892 1.5595 104.5 22.0 .403  51
2019 01 13 05  12 10 49.927   -12 54 24.22  .98859 1.5595 104.5 22.0 .414  51
2019 01 13 06  12 10 54.968   -12 54 36.93  .98826 1.5594 104.5 22.0 .426  50
2019 01 13 07  12 11 00.008   -12 54 49.60  .98793 1.5594 104.6 22.0 .437  50
2019 01 13 08  12 11 05.046   -12 55 02.24  .98760 1.5594 104.6 22.0 .448  49
2019 01 13 09  12 11 10.083   -12 55 14.85  .98727 1.5593 104.6 22.0 .460  49
2019 01 13 10  12 11 15.119   -12 55 27.42  .98694 1.5593 104.6 22.0 .471  48
2019 01 13 11  12 11 20.153   -12 55 39.96  .98661 1.5593 104.6 22.0 .483  48
2019 01 13 12  12 11 25.186   -12 55 52.46  .98628 1.5592 104.7 22.0 .495  47
2019 01 13 13  12 11 30.218   -12 56 04.93  .98595 1.5592 104.7 22.0 .508  47
2019 01 13 14  12 11 35.248   -12 56 17.36  .98562 1.5592 104.7 22.0 .520  46
2019 01 13 15  12 11 40.277   -12 56 29.77  .98529 1.5591 104.7 22.0 .532  46
2019 01 13 16  12 11 45.304   -12 56 42.13  .98496 1.5591 104.8 22.0 .545  46
2019 01 13 17  12 11 50.330   -12 56 54.47  .98463 1.5591 104.8 22.0 .558  45
2019 01 13 18  12 11 55.354   -12 57 06.77  .98430 1.5591 104.8 22.0 .570  45
2019 01 13 19  12 12 00.377   -12 57 19.03  .98398 1.5590 104.8 22.0 .583  45
2019 01 13 20  12 12 05.399   -12 57 31.26  .98365 1.5590 104.8 22.0 .597  44
2019 01 13 21  12 12 10.419   -12 57 43.46  .98332 1.5590 104.9 22.0 .610  44
2019 01 13 22  12 12 15.438   -12 57 55.62  .98299 1.5589 104.9 22.0 .623  44
2019 01 13 23  12 12 20.455   -12 58 07.75  .98266 1.5589 104.9 22.0 .637  43
2019 01 14 00  12 12 25.471   -12 58 19.84  .98233 1.5589 104.9 22.0 .651  43
2019 01 14 01  12 12 30.485   -12 58 31.90  .98200 1.5589 105.0 22.0 .665  43
2019 01 14 02  12 12 35.498   -12 58 43.93  .98167 1.5588 105.0 22.0 .679  42
2019 01 14 03  12 12 40.510   -12 58 55.92  .98135 1.5588 105.0 22.0 .693  42
2019 01 14 04  12 12 45.520   -12 59 07.88  .98102 1.5588 105.0 22.0 .707  42
2019 01 14 05  12 12 50.529   -12 59 19.80  .98069 1.5587 105.0 22.0 .721  42
2019 01 14 06  12 12 55.536   -12 59 31.69  .98036 1.5587 105.1 22.0 .736  41
2019 01 14 07  12 13 00.542   -12 59 43.54  .98003 1.5587 105.1 22.0 .751  41
2019 01 14 08  12 13 05.546   -12 59 55.36  .97970 1.5586 105.1 22.0 .766  41
2019 01 14 09  12 13 10.549   -13 00 07.15  .97938 1.5586 105.1 22.0 .781  41
2019 01 14 10  12 13 15.551   -13 00 18.90  .97905 1.5586 105.1 22.0 .796  41
2019 01 14 11  12 13 20.551   -13 00 30.61  .97872 1.5586 105.2 22.0 .811  40
2019 01 14 12  12 13 25.550   -13 00 42.29  .97839 1.5585 105.2 22.0 .826  40
2019 01 14 13  12 13 30.547   -13 00 53.94  .97807 1.5585 105.2 22.0 .842  40
2019 01 14 14  12 13 35.543   -13 01 05.55  .97774 1.5585 105.2 22.0 .858  40
2019 01 14 15  12 13 40.537   -13 01 17.13  .97741 1.5584 105.3 22.0 .873  40
2019 01 14 16  12 13 45.530   -13 01 28.67  .97709 1.5584 105.3 22.0 .889  39
2019 01 14 17  12 13 50.521   -13 01 40.18  .97676 1.5584 105.3 22.0 .906  39
2019 01 14 18  12 13 55.511   -13 01 51.65  .97643 1.5584 105.3 22.0 .922  39
2019 01 14 19  12 14 00.499   -13 02 03.09  .97610 1.5583 105.3 22.0 .938  39
2019 01 14 20  12 14 05.486   -13 02 14.49  .97578 1.5583 105.4 22.0 .955  39